Year,Month,Day,Hour,Minute,Value (Times are PST for temperature in C)
2008,08,23,00,00,14.30
2008,08,23,00,01,14.30
2008,08,23,00,02,14.30
2008,08,23,00,03,14.20
2008,08,23,00,04,14.20
2008,08,23,00,05,14.20
2008,08,23,00,06,14.20
2008,08,23,00,07,14.20
2008,08,23,00,08,14.20
2008,08,23,00,09,14.20
2008,08,23,00,10,14.20
2008,08,23,00,11,14.20
2008,08,23,00,12,14.20
2008,08,23,00,13,14.20
2008,08,23,00,14,14.20
2008,08,23,00,15,14.30
2008,08,23,00,16,14.30
2008,08,23,00,17,14.30
2008,08,23,00,18,14.30
2008,08,23,00,19,14.30
2008,08,23,00,20,14.30
2008,08,23,00,21,14.30
2008,08,23,00,22,14.30
2008,08,23,00,23,14.30
2008,08,23,00,24,14.30
2008,08,23,00,25,14.30
2008,08,23,00,26,14.30
2008,08,23,00,27,14.30
2008,08,23,00,28,14.30
2008,08,23,00,29,14.30
2008,08,23,00,30,14.30
2008,08,23,00,31,14.30
2008,08,23,00,32,14.30
2008,08,23,00,33,14.30
2008,08,23,00,34,14.30
2008,08,23,00,35,14.30
2008,08,23,00,36,14.30
2008,08,23,00,37,14.40
2008,08,23,00,38,14.40
2008,08,23,00,39,14.40
2008,08,23,00,40,14.40
2008,08,23,00,41,14.40
2008,08,23,00,42,14.40
2008,08,23,00,43,14.40
2008,08,23,00,44,14.50
2008,08,23,00,45,14.50
2008,08,23,00,46,14.50
2008,08,23,00,47,14.50
2008,08,23,00,48,14.50
2008,08,23,00,49,14.50
2008,08,23,00,50,14.50
2008,08,23,00,51,14.50
2008,08,23,00,52,14.50
2008,08,23,00,53,14.50
2008,08,23,00,54,14.40
2008,08,23,00,55,14.40
2008,08,23,00,56,14.40
2008,08,23,00,57,14.50
2008,08,23,00,58,14.50
2008,08,23,00,59,14.50
2008,08,23,01,00,14.50
2008,08,23,01,01,14.50
2008,08,23,01,02,14.50
2008,08,23,01,03,14.50
2008,08,23,01,04,14.50
2008,08,23,01,05,14.50
2008,08,23,01,06,14.50
2008,08,23,01,07,14.50
2008,08,23,01,08,14.50
2008,08,23,01,09,14.50
2008,08,23,01,10,14.50
2008,08,23,01,11,14.50
2008,08,23,01,12,14.50
2008,08,23,01,13,14.50
2008,08,23,01,14,14.50
2008,08,23,01,15,14.60
2008,08,23,01,16,14.60
2008,08,23,01,17,14.60
2008,08,23,01,18,14.60
2008,08,23,01,19,14.60
2008,08,23,01,20,14.60
2008,08,23,01,21,14.60
2008,08,23,01,22,14.60
2008,08,23,01,23,14.60
2008,08,23,01,24,14.60
2008,08,23,01,25,14.60
2008,08,23,01,26,14.60
2008,08,23,01,27,14.60
2008,08,23,01,28,14.60
2008,08,23,01,29,14.60
2008,08,23,01,30,14.60
2008,08,23,01,31,14.60
2008,08,23,01,32,14.60
2008,08,23,01,33,14.60
2008,08,23,01,34,14.60
2008,08,23,01,35,14.70
2008,08,23,01,36,14.70
2008,08,23,01,37,14.70
2008,08,23,01,38,14.70
2008,08,23,01,39,14.70
2008,08,23,01,40,14.70
2008,08,23,01,41,14.80
2008,08,23,01,42,14.80
2008,08,23,01,43,14.80
2008,08,23,01,44,14.80
2008,08,23,01,45,14.80
2008,08,23,01,46,14.80
2008,08,23,01,47,14.80
2008,08,23,01,48,14.80
2008,08,23,01,49,14.80
2008,08,23,01,50,14.80
2008,08,23,01,51,14.80
2008,08,23,01,52,14.80
2008,08,23,01,53,14.80
2008,08,23,01,54,14.80
2008,08,23,01,55,14.80
2008,08,23,01,56,14.80
2008,08,23,01,57,14.80
2008,08,23,01,58,14.80
2008,08,23,01,59,14.80
2008,08,23,02,00,14.80
2008,08,23,02,01,14.80
2008,08,23,02,02,14.80
2008,08,23,02,03,14.80
2008,08,23,02,04,14.80
2008,08,23,02,05,14.80
2008,08,23,02,06,14.80
2008,08,23,02,07,14.80
2008,08,23,02,08,14.80
2008,08,23,02,09,14.90
2008,08,23,02,10,14.90
2008,08,23,02,11,14.90
2008,08,23,02,12,14.90
2008,08,23,02,13,14.90
2008,08,23,02,14,14.90
2008,08,23,02,15,14.90
2008,08,23,02,16,14.90
2008,08,23,02,17,14.90
2008,08,23,02,18,14.90
2008,08,23,02,19,14.90
2008,08,23,02,20,15.00
2008,08,23,02,21,15.00
2008,08,23,02,22,15.00
2008,08,23,02,23,15.00
2008,08,23,02,24,15.00
2008,08,23,02,25,15.00
2008,08,23,02,26,15.00
2008,08,23,02,27,15.00
2008,08,23,02,28,15.00
2008,08,23,02,29,15.00
2008,08,23,02,30,15.00
2008,08,23,02,31,15.00
2008,08,23,02,32,15.00
2008,08,23,02,33,15.00
2008,08,23,02,34,15.00
2008,08,23,02,35,15.00
2008,08,23,02,36,15.00
2008,08,23,02,37,15.00
2008,08,23,02,38,15.00
2008,08,23,02,39,15.00
2008,08,23,02,40,15.00
2008,08,23,02,41,15.00
2008,08,23,02,42,15.00
2008,08,23,02,43,15.00
2008,08,23,02,44,15.00
2008,08,23,02,45,15.00
2008,08,23,02,46,15.00
2008,08,23,02,47,15.00
2008,08,23,02,48,15.00
2008,08,23,02,49,15.00
2008,08,23,02,50,15.00
2008,08,23,02,51,15.00
2008,08,23,02,52,15.00
2008,08,23,02,53,15.00
2008,08,23,02,54,15.00
2008,08,23,02,55,15.00
2008,08,23,02,56,14.90
2008,08,23,02,57,14.90
2008,08,23,02,58,14.80
2008,08,23,02,59,14.80
2008,08,23,03,00,14.80
2008,08,23,03,01,14.80
2008,08,23,03,02,14.80
2008,08,23,03,03,14.80
2008,08,23,03,04,14.80
2008,08,23,03,05,14.80
2008,08,23,03,06,14.80
2008,08,23,03,07,14.80
2008,08,23,03,08,14.80
2008,08,23,03,09,14.80
2008,08,23,03,10,14.80
2008,08,23,03,11,14.80
2008,08,23,03,12,14.80
2008,08,23,03,13,14.80
2008,08,23,03,14,14.80
2008,08,23,03,15,14.80
2008,08,23,03,16,14.80
2008,08,23,03,17,14.80
2008,08,23,03,18,14.90
2008,08,23,03,19,14.90
2008,08,23,03,20,14.90
2008,08,23,03,21,14.90
2008,08,23,03,22,14.90
2008,08,23,03,23,14.90
2008,08,23,03,24,14.90
2008,08,23,03,25,14.90
2008,08,23,03,26,14.90
2008,08,23,03,27,14.90
2008,08,23,03,28,15.00
2008,08,23,03,29,15.00
2008,08,23,03,30,15.00
2008,08,23,03,31,15.00
2008,08,23,03,32,15.00
2008,08,23,03,33,15.00
2008,08,23,03,34,15.00
2008,08,23,03,35,15.00
2008,08,23,03,36,15.00
2008,08,23,03,37,15.00
2008,08,23,03,38,15.00
2008,08,23,03,39,15.00
2008,08,23,03,40,15.00
2008,08,23,03,41,15.00
2008,08,23,03,42,15.00
2008,08,23,03,43,15.00
2008,08,23,03,44,15.00
2008,08,23,03,45,15.00
2008,08,23,03,46,15.00
2008,08,23,03,47,15.00
2008,08,23,03,48,15.00
2008,08,23,03,49,15.00
2008,08,23,03,50,15.00
2008,08,23,03,51,15.00
2008,08,23,03,52,15.00
2008,08,23,03,53,15.00
2008,08,23,03,54,15.00
2008,08,23,03,55,15.00
2008,08,23,03,56,15.00
2008,08,23,03,57,15.00
2008,08,23,03,58,15.00
2008,08,23,03,59,15.00
2008,08,23,04,00,15.00
